Hourly Weather Roundup
Issued by NWS Central Illinois

Home | Current Version | Previous Version | Text Only | Print | Product List | Glossary On
Versions: 1 2 3 4 5 6 7 8 9 10 11 12 13 14 15 16 17 18 19 20 21 22 23 24 25 26 27 28 29 30 31 32 33 34 35 36 37 38 39 40 41 42 43 44 45 46 47 48 49 50
000
NZUS43 KILX 242110
HWRILX

AREA WEATHER ROUNDUP
NATIONAL WEATHER SERVICE, LINCOLN IL
300 PM CST WED DEC 24 2014


CITY           SKY/WX    TMP DP  RH WIND       PRES   REMARKS
BLOOMINGTON    CLOUDY    36  34  92 W12       29.57R FOG     WCI  28
CHAMPAIGN      LGT RAIN  38  35  89 W18       29.57R WCI  28
DECATUR        CLOUDY    38  35  89 W10G22    29.60R WCI  31
FLORA          CLOUDY    39  36  88 W10       29.65R WCI  33
GALESBURG      DRIZZLE   35  33  94 W13       29.60R WCI  26
JACKSONVILLE   DRIZZLE   38  35  92 W14       29.64R WCI  29
LACON          DRIZZLE   36  33  89 W9        29.57R WCI  29
LAWRENCEVILLE  CLOUDY    40  37  89 W10       29.63R WCI  33
LITCHFIELD     CLOUDY    37  32  85 W14       29.65R WCI  28
$$


CITY           SKY/WX    TMP DP  RH WIND       PRES   REMARKS
LINCOLN        DRIZZLE   38  35  89 W8        29.60R WCI  32
MACOMB         CLOUDY    35  34  94 W15       29.64R WCI  26
MATTOON        LGT RAIN  38  36  92 W15G24    29.60R WCI  29
MT CARMEL AP   CLOUDY    43  37  81 W15       29.64R
OLNEY-NOBLE AP CLOUDY    37  36  93 W9        29.65R WCI  31
PARIS          CLOUDY    38  37  94 W16       29.58R WCI  29
PEORIA         LGT RAIN  38  33  82 W9        29.59R WCI  31
PONTIAC        CLOUDY    38  36  92 W16       29.56R FOG     WCI  28
RANTOUL        LGT RAIN  39  37  93 W14       29.55R WCI  31
ROBINSON       DRIZZLE   39  37  91 W14       29.63R WCI  31
SPRINGFIELD    CLOUDY    38  34  85 W15       29.62R WCI  29
TAYLORVILLE    CLOUDY    36  34  93 W13       29.63R FOG     WCI  27
$$

...REGIONAL REPORTS...


CITY           SKY/WX    TMP DP  RH WIND       PRES   REMARKS
CHICAGO O`HARE CLOUDY    39  33  79 W12       29.48R WCI  32
KANKAKEE       LGT RAIN  38  37  96 W14G20    29.53R WCI  29
MOLINE         CLOUDY    36  31  82 NW15      29.58S WCI  27
MOUNT VERNON   CLOUDY    39  34  81 W7        29.67R WCI  34
PITTSFIELD     CLOUDY    37  33  87 W12       29.67R WCI  29
QUINCY         CLOUDY    36  32  85 W13       29.66R WCI  27
ROCKFORD       LGT RAIN  37  33  85 W7        29.53S WCI  32
$$


CITY           SKY/WX    TMP DP  RH WIND       PRES   REMARKS
BURLINGTON     CLOUDY    37  33  85 NW12G20   29.62S WCI  29
CEDAR RAPIDS   CLOUDY    36  33  89 NW14      29.61R WCI  27
DES MOINES     CLOUDY    35  31  85 NW16      29.71F WCI  25
KIRKSVILLE     MIX PCPN  36  33  89 W12G25    29.72R WCI  28
OTTUMWA        CLOUDY    37  32  82 W12       29.68R WCI  29
ST LOUIS       LGT RAIN  39  34  82 W14       29.68R WCI  31
$$


CITY           SKY/WX    TMP DP  RH WIND       PRES   REMARKS
TERRE HAUTE    CLOUDY    38  35  89 W9        29.59R WCI  31
EVANSVILLE     CLOUDY    43  37  79 W12       29.66R
INDIANAPOLIS   CLOUDY    37  36  96 W17       29.52R WCI  27
LAFAYETTE      CLOUDY    37  34  89 W13       29.52R WCI  29
MADISON        CLOUDY    35  33  92 NW8       29.50R WCI  29
MILWAUKEE      CLOUDY    40  34  79 NW7       29.47S
$$




USA.gov is the U.S. government's official web portal to all federal, state and local government web resources and services.